Location: S�tio Afonso Gruber
(26.1760°S, 49.5250°W)
Time: 12:11:20
(UTC+00:00)

ITAMSAT 1 - Visible Passes

Search period start: 08 December 2022 00:00
Search period end: 18 December 2022 00:00
Orbit: 784 x 795 km, 98.9° (Epoch: 07 December)

Date Brightness Start Highest point End Pass type
(mag) Time Alt. Az. Time Alt. Az. Time Alt. Az.
08 Dec 7.7 23:13:12 10° SSE 23:18:22 60° ENE 23:23:31 10° N visible
09 Dec 10.6 00:55:32 10° SW 00:57:13 11° WSW 00:58:53 10° W visible
09 Dec 8.5 22:44:15 10° SE 22:48:44 28° E 22:53:10 10° NNE visible
10 Dec 9.8 00:23:48 10° SSW 00:27:56 24° WSW 00:32:04 10° WNW visible
10 Dec 8.5 23:53:30 10° S 23:58:33 49° WSW 00:03:34 10° NNW visible
11 Dec 7.6 23:23:47 10° SSE 23:29:03 79° ENE 23:34:15 10° N visible
12 Dec 8.2 22:54:37 10° SSE 22:59:27 37° E 23:04:13 10° NNE visible
13 Dec 10.1 00:34:56 10° SSW 00:38:31 19° WSW 00:42:06 10° WNW visible
13 Dec 9.1 22:26:19 10° SE 22:29:43 17° E 22:33:07 10° NE visible
14 Dec 9.0 00:04:20 10° S 00:09:10 38° WSW 00:13:58 10° NW visible
14 Dec 7.7 23:34:26 10° S 23:39:42 81° WSW 23:44:55 10° NNW visible
15 Dec 7.9 23:05:04 10° SSE 23:10:07 47° E 23:15:08 10° N visible
16 Dec 10.4 00:46:16 10° SW 00:49:04 15° WSW 00:51:54 10° W visible
16 Dec 8.8 22:36:23 10° SE 22:40:27 23° E 22:44:29 10° NNE visible
17 Dec 9.5 00:15:15 10° SSW 00:19:46 30° WSW 00:24:16 10° NW visible
17 Dec 8.1 23:45:09 10° S 23:50:20 63° WSW 23:55:29 10° NNW visible
